When you browse on this site, cookies collect data to enhance your experience and personalize the content and advertising you see.
Visit our Privacy Policy to learn more. By continuing to use the site, you agree to this use of cookies and data.
  • In Hungary
  • List of Countries
  • For 7 days
  • Water Temperature
  • Satellite Maps
  • Weather Map
  • News
  • Weather Widgets
  • user-avatar
    Login

    Hourly Weather Bruay-la-Buissiere

    Today, 20 March, Wednesday

    Time Temperature Precipitation Wind Pressure Humidity
    00:00 +5°C° 0 mm 3 mps 768 mmHg 94%
    01:00 +4°C° 0 mm 3 mps 768 mmHg 94%
    02:00 +4°C° 0 mm 3 mps 768 mmHg 94%
    03:00 +4°C° 0 mm 3 mps 768 mmHg 94%
    04:00 +4°C° 0 mm 3 mps 768 mmHg 94%
    05:00 +4°C° 0 mm 3 mps 768 mmHg 94%
    06:00 +4°C° 0 mm 3 mps 769 mmHg 94%
    07:00 +5°C° 0 mm 3 mps 769 mmHg 90%
    08:00 +8°C° 0 mm 3 mps 769 mmHg 87%
    09:00 +9°C° 0 mm 3 mps 769 mmHg 83%
    10:00 +10°C° 0 mm 3 mps 769 mmHg 79%
    11:00 +11°C° 0 mm 3 mps 769 mmHg 75%
    12:00 +12°C° 0 mm 3 mps 770 mmHg 72%
    13:00 +12°C° 0 mm 3 mps 770 mmHg 71%
    14:00 +12°C° 0 mm 3 mps 769 mmHg 71%
    15:00 +12°C° 0 mm 3 mps 769 mmHg 71%
    16:00 +13°C° 0 mm 2 mps 769 mmHg 75%
    17:00 +12°C° 0 mm 2 mps 769 mmHg 80%
    18:00 +10°C° 0 mm 2 mps 769 mmHg 84%
    19:00 +10°C° 0 mm 1 mps 769 mmHg 86%
    20:00 +9°C° 0 mm 1 mps 769 mmHg 88%
    21:00 +9°C° 0 mm 1 mps 770 mmHg 90%
    22:00 +8°C° 0 mm 1 mps 770 mmHg 91%
    23:00 +8°C° 0 mm 1 mps 770 mmHg 91%

    Tomorrow, 21 March, Thursday

    Time Temperature Precipitation Wind Pressure Humidity
    00:00 +8°C° 0 mm 1 mps 770 mmHg 91%
    01:00 +8°C° 0 mm 1 mps 770 mmHg 92%
    02:00 +8°C° 0 mm 1 mps 770 mmHg 92%
    03:00 +7°C° 0 mm 1 mps 769 mmHg 92%
    04:00 +7°C° 0 mm 1 mps 770 mmHg 92%
    05:00 +7°C° 0 mm 1 mps 770 mmHg 92%
    06:00 +7°C° 0 mm 1 mps 770 mmHg 93%
    07:00 +8°C° 0 mm 1 mps 770 mmHg 88%
    08:00 +10°C° 0 mm 1 mps 770 mmHg 84%
    09:00 +12°C° 0 mm 1 mps 770 mmHg 79%
    10:00 +12°C° 0 mm 1 mps 770 mmHg 78%
    11:00 +13°C° 0 mm 1 mps 770 mmHg 76%
    12:00 +14°C° 0 mm 1 mps 770 mmHg 74%
    13:00 +14°C° 0 mm 1 mps 769 mmHg 75%
    14:00 +14°C° 0 mm 1 mps 769 mmHg 75%
    15:00 +14°C° 0 mm 1 mps 769 mmHg 75%
    16:00 +13°C° 0 mm 1 mps 768 mmHg 78%
    17:00 +12°C° 0 mm 1 mps 768 mmHg 81%
    18:00 +11°C° 0 mm 1 mps 768 mmHg 84%
    19:00 +11°C° 0 mm 1 mps 768 mmHg 86%
    20:00 +10°C° 0 mm 1 mps 768 mmHg 88%
    21:00 +9°C° 0 mm 1 mps 768 mmHg 90%
    22:00 +9°C° 0 mm 1 mps 768 mmHg 90%
    23:00 +9°C° 0 mm 1 mps 768 mmHg 91%

    Day after tomorrow, 22 March, Friday

    Time Temperature Precipitation Wind Pressure Humidity
    00:00 +9°C° 0 mm 1 mps 768 mmHg 92%
    01:00 +8°C° 0 mm 1 mps 768 mmHg 92%
    02:00 +8°C° 0 mm 1 mps 767 mmHg 92%
    03:00 +8°C° 0 mm 1 mps 767 mmHg 93%
    04:00 +8°C° 0 mm 1 mps 767 mmHg 93%
    05:00 +8°C° 0 mm 1 mps 767 mmHg 93%
    06:00 +7°C° 0 mm 1 mps 767 mmHg 94%
    07:00 +9°C° 0 mm 1 mps 767 mmHg 87%
    08:00 +11°C° 0 mm 1 mps 767 mmHg 81%
    09:00 +12°C° 0 mm 2 mps 767 mmHg 74%
    10:00 +14°C° 0 mm 2 mps 766 mmHg 67%
    11:00 +15°C° 0 mm 2 mps 766 mmHg 60%
    12:00 +16°C° 0 mm 2 mps 766 mmHg 52%
    13:00 +17°C° 0 mm 2 mps 766 mmHg 51%
    14:00 +18°C° 0 mm 1 mps 765 mmHg 50%
    15:00 +18°C° 0 mm 1 mps 765 mmHg 49%
    16:00 +16°C° 0 mm 1 mps 765 mmHg 56%
    17:00 +14°C° 0 mm 2 mps 765 mmHg 64%
    18:00 +13°C° 0 mm 2 mps 765 mmHg 71%
    19:00 +12°C° 0 mm 2 mps 765 mmHg 76%
    20:00 +10°C° 0 mm 2 mps 765 mmHg 81%
    21:00 +9°C° 0 mm 2 mps 766 mmHg 86%
    22:00 +8°C° 0 mm 2 mps 766 mmHg 86%
    23:00 +8°C° 0 mm 2 mps 766 mmHg 86%

    23 March, Saturday

    Time Temperature Precipitation Wind Pressure Humidity
    00:00 +7°C° 0 mm 2 mps 766 mmHg 87%
    01:00 +7°C° 0 mm 2 mps 766 mmHg 89%
    02:00 +7°C° 0 mm 2 mps 766 mmHg 90%
    03:00 +7°C° 0 mm 2 mps 766 mmHg 92%
    04:00 +8°C° 0 mm 1 mps 766 mmHg 93%
    05:00 +8°C° 0 mm 1 mps 766 mmHg 94%
    06:00 +8°C° 0 mm 1 mps 766 mmHg 95%
    07:00 +9°C° 0 mm 1 mps 766 mmHg 91%
    08:00 +11°C° 0 mm 1 mps 766 mmHg 88%
    09:00 +12°C° 0 mm 1 mps 767 mmHg 84%
    10:00 +13°C° 0 mm 2 mps 767 mmHg 80%
    11:00 +14°C° 0 mm 2 mps 767 mmHg 76%
    12:00 +15°C° 0 mm 2 mps 767 mmHg 72%
    13:00 +14°C° 0.1 mm 3 mps 766 mmHg 73%
    14:00 +14°C° 0.1 mm 3 mps 766 mmHg 75%
    15:00 +13°C° 0.1 mm 4 mps 766 mmHg 76%
    16:00 +12°C° 0 mm 4 mps 766 mmHg 79%
    17:00 +11°C° 0 mm 4 mps 766 mmHg 82%
    18:00 +10°C° 0 mm 4 mps 766 mmHg 85%
    19:00 +10°C° 0 mm 4 mps 766 mmHg 86%
    20:00 +9°C° 0 mm 3 mps 766 mmHg 88%
    21:00 +8°C° 0 mm 3 mps 767 mmHg 90%
    22:00 +8°C° 0 mm 3 mps 766 mmHg 91%
    23:00 +7°C° 0 mm 3 mps 766 mmHg 92%

    24 March, Sunday

    Time Temperature Precipitation Wind Pressure Humidity
    00:00 +7°C° 0 mm 3 mps 766 mmHg 93%
    01:00 +5°C° 0 mm 3 mps 766 mmHg 92%
    02:00 +5°C° 0 mm 3 mps 765 mmHg 92%
    03:00 +5°C° 0 mm 3 mps 765 mmHg 91%
    04:00 +5°C° 0 mm 3 mps 765 mmHg 90%
    05:00 +4°C° 0 mm 3 mps 765 mmHg 89%
    06:00 +4°C° 0 mm 3 mps 765 mmHg 87%
    07:00 +7°C° 0 mm 3 mps 765 mmHg 83%
    08:00 +8°C° 0 mm 3 mps 766 mmHg 78%
    09:00 +9°C° 0 mm 3 mps 766 mmHg 74%
    10:00 +10°C° 0 mm 3 mps 766 mmHg 71%
    11:00 +11°C° 0 mm 4 mps 766 mmHg 68%
    12:00 +12°C° 0 mm 4 mps 766 mmHg 65%
    13:00 +12°C° 0 mm 5 mps 765 mmHg 64%
    14:00 +12°C° 0 mm 5 mps 765 mmHg 62%
    15:00 +12°C° 0 mm 5 mps 765 mmHg 61%
    16:00 +10°C° 0 mm 5 mps 765 mmHg 62%
    17:00 +8°C° 0 mm 4 mps 765 mmHg 63%
    18:00 +6°C° 0 mm 4 mps 766 mmHg 65%
    19:00 +7°C° 0 mm 3 mps 766 mmHg 67%
    20:00 +5°C° 0 mm 3 mps 767 mmHg 69%
    21:00 +5°C° 0 mm 2 mps 767 mmHg 71%
    22:00 +4°C° 0 mm 2 mps 767 mmHg 72%
    23:00 +4°C° 0 mm 2 mps 767 mmHg 72%

    25 March, Monday

    Time Temperature Precipitation Wind Pressure Humidity
    00:00 +4°C° 0 mm 2 mps 768 mmHg 73%
    01:00 +4°C° 0 mm 2 mps 768 mmHg 75%
    02:00 +4°C° 0 mm 2 mps 767 mmHg 77%
    03:00 +4°C° 0 mm 1 mps 767 mmHg 79%
    04:00 +3°C° 0 mm 2 mps 768 mmHg 82%
    05:00 +3°C° 0 mm 2 mps 768 mmHg 85%
    06:00 +3°C° 0 mm 2 mps 768 mmHg 88%
    07:00 +5°C° 0 mm 2 mps 768 mmHg 83%
    08:00 +7°C° 0 mm 3 mps 768 mmHg 78%
    09:00 +8°C° 0 mm 4 mps 769 mmHg 72%
    10:00 +8°C° 0 mm 4 mps 769 mmHg 70%
    11:00 +9°C° 0 mm 5 mps 768 mmHg 67%
    12:00 +10°C° 0 mm 5 mps 768 mmHg 64%
    13:00 +10°C° 0 mm 6 mps 768 mmHg 65%
    14:00 +9°C° 0 mm 6 mps 768 mmHg 65%
    15:00 +9°C° 0 mm 7 mps 768 mmHg 65%
    16:00 +8°C° 0 mm 6 mps 768 mmHg 68%
    17:00 +7°C° 0 mm 5 mps 768 mmHg 71%
    18:00 +5°C° 0 mm 5 mps 768 mmHg 74%
    19:00 +5°C° 0 mm 4 mps 769 mmHg 75%
    20:00 +4°C° 0 mm 4 mps 769 mmHg 75%
    21:00 +3°C° 0 mm 3 mps 770 mmHg 76%
    22:00 +3°C° 0 mm 3 mps 770 mmHg 77%
    23:00 +2°C° 0 mm 3 mps 770 mmHg 77%
    Show more